星链-3262 (STARLINK-3262 )

导读 | 豆包AI

STARLINK-3262是美国SpaceX公司星链(Starlink)星座的一员,于2021年12月18日发射升空。作为低轨互联网卫星,它运行在近地轨道,为全球偏远地区、海洋等缺乏基础设施的区域提供高速互联网接入服务,是星链星座大规模组网建设中的重要组成部分,助力SpaceX实现全球卫星互联网覆盖的目标。

基本信息
目录编号:
50207
目录名称:
STARLINK-3262
国际标识:
2021-125BD
轨道中心:
EARTH
卫星名称:
星链-3262
卫星全名:
星链-3262 (STARLINK-3262 )
卫星状态:
已陨落 最后检测时间 2026-02-25
发射日期:
2021-12-18 UTC
国别 :
美国 (US)
星等 :
--
轨道信息
数据来源 国际轨道数据
星历时间: 2026-02-25T21:57:57+0800
轨道信息已过期17天
半长轴: 6517.001km
偏心率: 0.0003547
轨道倾角: 53.203°
近地点辐角 300.640°
升交点赤经 269.432°
平近点角 59.430°
近地点: 136.552km
远地点: 141.176km
周期: 87.263分钟
每日圈数: 16.501792
详细信息
固有亮度:
5
最大亮度:
2.5
卫星平台:
Starlink v1.5
覆盖范围:
全球
运营商:
太空探索技术公司
运营商所在国:
美国
制造商(研发单位):
太空探索技术公司
制造商所在国:
美国
使用方式:
暂无
卫星简介
星链(Starlink)计划是由太空探索技术公司(SpaceX)提出的一个巨型低轨卫星互联网星座项目,计划在2019年至2024年间在太空搭建由约1.2万颗卫星组成的“星链”网络,其中1584颗将部署在地球上空550千米处的近地轨道,并从2020年开始工作。该卫星仍在工作。